www.pogodaiklimat.ru

Погода и климат >> Архив погоды >> Хорватия >> Dubrovnik-Gorica


ПОГОДА в Dubrovnik-Gorica

  • Прогноз погоды в Dubrovnik-Gorica
  • Монитор погоды в Dubrovnik-Gorica
  • Климат города

АРХИВ ПОГОДЫ в Dubrovnik-Gorica

Время (UTC), дата Ветер
(напр.,м/с)
 
Видим.   Явления Облачность Т
(С)
Тd
(С)
f
(%)
Тe
(С)
Тes
(С)
Комфортность P
(гПа)
Po
(гПа)
Тmin
(С)
Tmax
(С)
R
(мм)
R24
(мм)
S
(см)
04 16.01 В 1 15 км 8/8 1000 м
[Cu med, cong]
+8.2 +5.1 81 +7 +7 1017.8 1011.2
05 16.01 ЮВ 2 15 км 8/8 1000 м
[Cu med, cong]
+8.4 +4.4 76 +7 +7 1017.5 1011.0
06 16.01 ЮВ 4 15 км 9/9 1000 м
[Cu med, cong]
+9.3 1016.5 1010.0
08 16.01 ЮВ 5 15 км 10/6 1000 м
[Cu med, cong Ac As]
+9.4 +6.2 80 +6 +6 1015.6 1009.1
07 16.01 ЮВ 6 15 км 10/6 1000 м
[Cu med, cong Ac As]
+9.6 +7.9 89 +6 +6 1016.4 1009.9
09 16.01 В 7 15 км 8/4 600 м
[Cu med, cong Ac und]
+9.9 +8.0 88 +6 +6 1015.3 1008.8
10 16.01 ЮЗ 7 20 км 6/6 1000 м
[Cu med, cong]
+13.1 +7.2 67 +11 +11 1015.2 1008.8
11 16.01 ЮЗ 6 20 км 6/6 1000 м
[Cu med, cong]
+13.5 +8.1 70 +11 +12 1014.2 1007.8
12 16.01 ЮЗ 5 20 км 6/6 1000 м
[Cu med, cong]
+14.6 1013.5 1007.1 0.7
13 16.01 ЮЗ 7 20 км 5/5 1000 м
[Cu med, cong]
+14.7 +7.4 62 +13 +13 1012.4 1006.0
18 16.01 ЮВ 5 20 км 10/4 1000 м
[Cu med, cong Ac As]
+11.6 +7.0 73 +9 +9 1010.6 1004.2 +15.1 0.7
19 16.01 ЮВ 4 20 км 10/4 1000 м
[Cu med, cong Ac As]
+11.9 +6.9 71 +10 +10 1010.5 1004.0
20 16.01 ЮВ 6 20 км 10/4 1000 м
[Cu med, cong Ac As]
+11.8 +7.2 73 +9 +9 1010.5 1004.0
03 17.01 ЮВ 8 15 км 10/3 1000 м
[Cu med, cong Ac As]
+12.4 +9.7 84 +9 +9 1005.7 999.4
04 17.01 ЮВ 6 15 км 10/3 1000 м
[Cu med, cong Ac As]
+12.2 +9.3 82 +10 +10 1004.8 998.5
05 17.01 Ю 7 15 км 10/3 1000 м
[Cu med, cong Ac As]
+12.4 +9.7 84 +9 +9 1003.3 997.0
06 17.01 Ю 7 15 км 10/3 1000 м
[Cu med, cong Ac As]
+13.0 1002.9 996.6
07 17.01 Ю 6 15 км 9/3 1000 м
[Cu med, cong Ac As]
+13.1 +10.2 83 +11 +11 1002.3 996.0
08 17.01 ЮВ 4 20 км 6/6 1000 м
[Cu med, cong]
+13.4 +10.4 82 +12 +12 1001.4 995.1
09 17.01 Ю 7 20 км 6/3 1000 м
[Cu med, cong Ac As]
+13.8 +10.4 80 +11 +12 1000.7 994.4
10 17.01 Ю 6 20 км 8/1 1000 м
[Cu med, cong Ac und]
+14.7 +10.7 77 +13 +14 1000.2 993.9
11 17.01 ЮВ 4 20 км 8/1 1000 м
[Cu med, cong Ac und]
+13.9 +12.0 88 +12 +14 998.6 992.3
12 17.01 В 4 20 км 9/3 1000 м
[Cu med, cong Ac As]
+14.0 996.3 990.0
13 17.01 ЮЗ 4 20 км 9/3 1000 м
[Cu med, cong Ac As]
+14.4 +10.2 76 +13 +14 995.2 989.0
18 17.01 С 5 15 км 10/3 1000 м
[Cu med, cong Ac As]
+8.5 -2.0 48 +5 +5 999.4 993.0 +16.0 3
19 17.01 СЗ 5 15 км 10/3 1000 м
[Cu med, cong Ac As]
+8.9 +2.0 62 +6 +6 999.9 993.5
20 17.01 СЗ 8 15 км 10/0
[Ac As]
+9.9 -2.8 41 +6 +6 1002.3 995.9
03 18.01 С 6 30 км 1/0
[Ac lent]
+7.2 -9.3 30 +4 +4 1012.5 1006.0
05 18.01 СЗ 4 30 км ясно +6.4 -9.5 31 +4 +4 1012.6 1006.0
04 18.01 С 3 30 км 1/0
[Ac lent]
+7.0 -10.2 28 +5 +5 1011.6 1005.1
06 18.01 СЗ 4 30 км ясно +5.8 1014.5 1007.9 +5.8
07 18.01 СЗ 3 30 км 1/1 1000 м
[Cu hum]
+6.3 -8.8 33 +4 +4 1014.8 1008.3
08 18.01 СЗ 4 30 км 1/1 1000 м
[Cu hum]
+8.2 -8.3 30 +6 +7 1016.0 1009.5
09 18.01 Ю 1 30 км 1/1 1000 м
[Cu hum]
+9.7 -7.2 30 +10 +13 1017.3 1010.8
11 18.01 СЗ 3 30 км 1/1 1000 м
[Cu hum]
+11.5 -5.8 29 +10 +14 1017.5 1011.1
10 18.01 СЗ 3 30 км 1/1 1000 м
[Cu hum]
+10.1 -6.4 31 +9 +12 1018.0 1011.5
12 18.01 СЗ 4 30 км 1/1 1000 м
[Cu hum]
+12.0 1017.3 1010.8
13 18.01 З 6 30 км 1/1 1000 м
[Cu hum]
+12.8 -7.5 24 +11 +12 1016.6 1010.1
18 18.01 В 2 30 км 4/0
[Cs]
+8.1 -3.0 45 +7 +7 1017.1 1010.5 +13.1
19 18.01 В 2 30 км 4/0
[Cs]
+8.5 -2.7 45 +7 +7 1017.1 1010.5
20 18.01 В 2 30 км 4/0
[Cs]
+9.0 -2.3 45 +8 +8 1017.1 1010.5
03 19.01 ЮВ 9 30 км 4/0
[Ac trans]
+9.7 +1.9 58 +6 +6 1015.3 1008.8
04 19.01 ЮВ 8 30 км 3/0
[Ac trans]
+9.6 +3.3 65 +6 +6 1014.6 1008.1
05 19.01 ЮВ 9 30 км 3/0
[Ac trans]
+9.5 +3.2 65 +5 +5 1014.6 1008.1
06 19.01 ЮВ 8 20 км 5/5 1000 м
[Cu med, cong]
+9.9 1014.6 1008.1
07 19.01 ЮВ 8 20 км 8/8 1000 м
[Cu med, cong]
+10.2 +2.8 60 +7 +7 1014.6 1008.1
08 19.01 ЮВ 9 20 км 5/5 1000 м
[Cu med, cong]
+10.9 +4.1 63 +7 +7 1014.7 1008.3
09 19.01 ЮВ 9 20 км 9/3 1000 м
[Cu med, cong Cs]
+11.2 +5.2 67 +8 +8 1014.6 1008.1
10 19.01 ЮВ 12 20 км 8/4 1000 м
[Cu med, cong Ci fib]
+13.0 +6.2 63 +10 +10 1014.5 1008.1
11 19.01 ЮВ 13 15 км 9/9 1000 м
[Cu med, cong]
+11.9 +6.3 69 +8 +8 1013.9 1007.4
12 19.01 ЮВ 10 15 км 9/9 600 м
[Cu med, cong]
+10.7 1013.4 1006.9
13 19.01 ЮВ 12 15 км 10/4 600 м
[Cu med, cong Ac As]
+10.9 +6.8 76 +6 +6 1013.2 1006.8
18 19.01 В 5 15 км 10/6 600 м
[Cu med, cong Ac As]
+11.8 +9.8 88 +9 +9 1011.7 1005.2 +13.0
20 19.01 Ю 15 15 км 10/4 600 м
[Cu med, cong Ac As]
+13.5 +9.3 76 +10 +10 1011.1 1004.7
19 19.01 Ю 13 15 км 10/6 600 м
[Cu med, cong Ac As]
+13.1 +10.2 83 +9 +9 1011.2 1004.8
03 20.01 ЮЗ 7 15 км 6/6 1000 м
[Cu med, cong]
+13.4 +9.6 78 +11 +11 1009.3 1003.0
04 20.01 Ю 6 15 км 6/6 1000 м
[Cu med, cong]
+13.2 +9.2 77 +11 +11 1008.8 1002.5
05 20.01 ЮЗ 5 15 км 8/4 1000 м
[Cu med, cong Ac und]
+13.0 +9.4 79 +11 +11 1008.8 1002.5
06 20.01 ЮЗ 3 15 км 10/5 1000 м
[Cu med, cong Ac As]
+12.9 1008.8 1002.5 0.5
08 20.01 С 2 15 км 9/3 1000 м
[Cu med, cong Ac und]
+10.9 +7.7 81 +10 +10 1009.4 1003.0
07 20.01 С 2 15 км 10/3 1000 м
[Cu med, cong Ac As]
+11.1 +8.5 84 +10 +10 1009.1 1002.7
09 20.01 СВ 4 15 км 9/3 1000 м
[Cu med, cong As trans]
+10.2 +3.3 62 +8 +9 1009.7 1003.3
10 20.01 С 2 15 км 10/3 1000 м
[Cu med, cong Ac As]
+11.6 +3.6 58 +11 +12 1009.7 1003.3
11 20.01 СЗ 4 15 км 10/1 1000 м
[Cu med, cong Ac As]
+10.5 +5.3 70 +8 +9 1010.5 1004.0
12 20.01 С 2 15 км 9/3 1000 м
[Cu med, cong Ac As]
+11.0 1009.3 1002.9 0.3
13 20.01 С 2 20 км 3/3 1000 м
[Cu med, cong]
+11.4 +4.3 62 +10 +12 1009.3 1002.9
18 20.01 С 2 30 км ясно +9.1 +1.9 61 +8 +8 1010.7 1004.2 +13.3 0.3
19 20.01 С 2 20 км ясно +8.6 +0.7 58 +7 +7 1010.9 1004.4
03 21.01 ЮВ 8 15 км 8/8 1000 м
[Cu med, cong]
+10.1 +5.5 73 +6 +6 1008.0 1001.5
04 21.01 ЮВ 10 20 км 8/8 1000 м
[Cu med, cong]
+10.3 +6.6 78 +6 +6 1007.3 1000.9
05 21.01 ЮВ 10 20 км 8/8 1000 м
[Cu med, cong]
+11.0 +7.0 76 +7 +7 1006.3 999.9
06 21.01 ЮВ 9 12 км слабый дождь 10/5 600 м
[Cu med, cong Ac As]
+10.3 +6.8 79 +6 +6 1005.9 999.5
08 21.01 ЮВ 8 12 км дождь 10/5 600 м
[Cu med, cong Ac As]
+9.3 +7.6 89 +5 +5 1004.6 998.2
07 21.01 ЮВ 6 12 км слабый дождь 10/5 600 м
[Cu med, cong Ac As]
+9.4 +7.3 87 +6 +6 1005.3 998.8
09 21.01 ЮВ 9 15 км 9/9 600 м
[Cu med, cong]
+10.4 +7.5 82 +6 +6 1003.4 997.0
10 21.01 ЮВ 8 15 км 9/9 600 м
[Cu med, cong]
+10.3 +8.2 87 +6 +6 1003.2 996.8
11 21.01 ЮВ 7 12 км дождь 10/4 600 м
[Cu med, cong As op]
+10.2 +8.5 89 +6 +7 1002.2 995.8
12 21.01 С 2 12 км слабый дождь 10/4 300 м
[Frnb As op]
+9.7 +7.4 86 +8 +9 1002.4 996.0 9
13 21.01 СЗ 2 12 км слабый дождь 10/4 300 м
[Frnb As op]
+9.5 +8.2 92 +8 +8 1002.4 996.0
18 21.01 СЗ 3 20 км ясно +9.9 -1.2 46 +8 +8 1003.4 997.0 +11.0 13
19 21.01 СВ 10
{24}
20 км ясно +9.7 -4.5 36 +6 +6 1003.4 997.0
20 21.01 СВ 8
{19}
20 км ясно +9.5 -4.9 36 +6 +6 1004.2 997.8
03 22.01 СВ 6 30 км ясно +7.4 -8.0 33 +4 +4 1009.5 1003.0
04 22.01 СВ 8 30 км ясно +7.2 -9.3 30 +3 +3 1009.5 1003.0
05 22.01 С 7 30 км ясно +6.7 -9.8 30 +3 +3 1011.4 1004.8
06 22.01 СВ 6 30 км ясно +6.5 1011.5 1005.0 +6.5
07 22.01 СВ 5 30 км ясно +6.3 -9.2 32 +3 +3 1012.6 1006.0
08 22.01 СЗ 2 30 км ясно +7.2 -9.3 30 +6 +8 1013.5 1007.0
09 22.01 СВ 6 30 км ясно +7.5 -9.7 28 +4 +6 1013.5 1007.0
10 22.01 СВ 7 30 км ясно +7.7 -8.8 30 +4 +5 1013.5 1007.0
12 22.01 С 4 30 км ясно +9.0 1013.6 1007.1
13 22.01 ЮВ 1 30 км ясно +10.6 -9.4 24 +11 +14 1013.4 1007.0
18 22.01 С 4 30 км ясно +7.3 -13.6 21 +5 +5 1014.2 1007.6 +11.2
20 22.01 С 3 30 км ясно +6.8 -13.0 23 +5 +5 1014.6 1008.0

 

Местоположение метеостанции Dubrovnik-Gorica (Хорватия): широта 42.65 долгота 18.08 высота над уровнем моря 53 м.

В архиве по умолчанию представлена погода в Dubrovnik-Gorica за последнюю неделю. Архивные данные за месяц целиком и за предыдущие месяцы, начиная с января 2011 года, Вы можете получить, выбрав интересующий диапазон дат из раскрывающегося списка и нажав кнопку "Ввод!".

Внимание! Время в таблицах - всемирное. Для получения местного времени необходимо прибавить поправку, которая в Dubrovnik-Gorica равна 1 ч.

Смотрите также архив погоды в соседних городах и на ближайших метеорологических станциях:

Погода в Dubrovnik-Cilipi (Хорватия) (18 км)
Погода в Neum (Босния и Герцеговина) (49 км)
Погода в Tivat (Черногория) (60 км)
Погода в Ploce (Хорватия) (68 км)
Погода в Niksic (Черногория) (72 км)
Погода в Mostar (Босния и Герцеговина) (81 км)
Погода в Lastovo (Хорватия) (97 км)
Погода в Podgorica (Черногория) (101 км)
Погода в Podgorica-Grad (Черногория) (101 км)
Погода в Bar (Черногория) (104 км)

Пояснения к столбцам:

Ветер - указаны скорость ветра в м/с - средняя за 10 мин, порывы в срок и между сроками (в фигурных скобках) и направление, откуда дует ветер: С - северный, СВ - северо-восточный, В - восточный, ЮВ - юго-восточный, Ю - южный, ЮЗ - юго-западный, З - западный, СЗ - северо-западный.
Видимость - горизонтальная дальность видимости в метрах или километрах. При видимости от 1 до 10 км при отсутствии осадков обычно наблюдается дымка, при ухудшении видимости до 1 км и менее - туман. В сухую погоду видимость может ухудшаться дымом, пылью или мглою.
Явления - указаны атмосферные явления, наблюдавшиеся в срок или в последний час перед сроком; фигурными скобками обозначены явления, наблюдавшиеся между сроками (за 1-3 часа до срока); квадратными скобками обозначены град или гололедные отложения с указанием их диаметра в мм.
Облачность - указаны через наклонную черту общая и нижняя облачность в баллах и высота нижней границы облаков в метрах; квадратными скобками обозначены формы облаков: Ci - перистые, Cs - перисто-слоистые, Cc - перисто-кучевые, Ac - высококучевые, As - высокослоистые, Sc - слоисто-кучевые, Ns - слоисто-дождевые, Cu - кучевые, Cb - кучево-дождевые. Подробнее классификацию облаков см. в Атласе облаков (PDF).
T - Температура воздуха - температура, измеренная на высоте 2 м над землей.
Td - Температура точки росы - температура, при понижении до которой содержащийся в воздухе водяной пар достигнет насыщения.
f - Относительная влажность воздуха - влажноcть воздуха, измеренная на высоте 2 м над землей.
Te - Эффективная температура - температура, которую ощущает одетый по сезону человек в тени. Характеристика душности погоды. При расчете учитывается влияние влажности воздуха и скорости ветра на теплоощущения человека.
Tes - Эффективная температура на солнце - температура, которую ощущает человек, с поправкой на солнечный нагрев. Характеристика знойности погоды. Зависит от высоты солнца над горизонтом, облачности и скорости ветра. Ночью, в пасмурную погоду, а также при ветре 12 м/с и более поправка равна нулю.
P - Атмосферное давление - приведенное к уровню моря атмосферное давление.
Po - Атмосферное давление - измеренное на уровне метеостанции атмосферное давление.
Tmin - Минимальная температура - минимум температуры воздуха на высоте 2 м над землей.
Tmax - Максимальная температура - максимум температуры воздуха на высоте 2 м над землей.
R - Количество осадков - Количество выпавших осадков за период времени, мм. При наведении курсора мыши на число - период времени, за который выпало указанное количество осадков.
R24 - Количество осадков - Количество выпавших осадков за 24 часа, мм.
S - Снежный покров - Высота снежного покрова, см. При наведении курсора мыши на число - состояние снежного покрова и степень покрытия местности в баллах.